This is the latest recevied weather packets stored in our database for station/object IW8RUI-5. If no packets are shown the sender has not sent any weather packets the latest 10 day(s).
| Time | Temp. | Humidity | Pressure | Rain* | Wind** | Luminosity | Snow |
|---|---|---|---|---|---|---|---|
| 1777833265 | 7.22° C | 17% | 1013 hPa | 0 mm | - | - | - |
| 1777832365 | 7.78° C | 17% | 1013 hPa | 0 mm | - | - | - |
| 1777829065 | 12.78° C | 15% | 1013 hPa | 0 mm | - | - | - |
| 1777824265 | 14.44° C | 17% | 1013 hPa | 0 mm | - | - | - |
| 1777821865 | 13.33° C | 14% | 1013 hPa | 0 mm | - | - | - |
| 1777821565 | 13.33° C | 14% | 1013 hPa | 0 mm | - | - | - |
| 1777820365 | 12.22° C | 10% | 1013 hPa | 0 mm | - | - | - |
| 1777819165 | 11.11° C | 10% | 1013 hPa | 0 mm | - | - | - |
| 1777818565 | 11.67° C | 10% | 1013 hPa | 0 mm | - | - | - |
| 1777811065 | 10° C | 10% | 1014 hPa | 0 mm | - | - | - |
| 1777809865 | 8.89° C | 10% | 1014 hPa | 0 mm | - | - | - |
| 1777808365 | 8.89° C | 10% | 1014 hPa | 0 mm | - | - | - |
| 1777805965 | 8.89° C | 10% | 1013 hPa | 0 mm | - | - | - |
| 1777805665 | 8.33° C | 10% | 1013 hPa | 0 mm | - | - | - |
| 1777804165 | 8.33° C | 35% | 1014 hPa | 0 mm | - | - | - |
| 1777803865 | 8.33° C | 36% | 1014 hPa | 0 mm | - | - | - |
| 1777802665 | 8.33° C | 42% | 1014 hPa | 0 mm | - | - | - |
| 1777802365 | 8.33° C | 42% | 1014 hPa | 0 mm | - | - | - |
| 1777801765 | 8.33° C | 49% | 1014 hPa | 0 mm | - | - | - |
| 1777801165 | 7.78° C | 49% | 1014 hPa | 0 mm | - | - | - |
| 1777800865 | 7.78° C | 49% | 1014 hPa | 0 mm | - | - | - |
| 1777800565 | 7.78° C | 50% | 1014 hPa | 0 mm | - | - | - |
| 1777800265 | 7.78° C | 49% | 1014 hPa | 0 mm | - | - | - |
| 1777799965 | 7.78° C | 49% | 1014 hPa | 0 mm | - | - | - |
| 1777799665 | 7.22° C | 50% | 1014 hPa | 0 mm | - | - | - |
* Rain latest hour (hover to see other rain measurements)
** Current wind speed in m/s (hover to see current wind gust speed)